| time (UTC) | temp F | wind direction | speed knots | gust knots | rain 1hr in | rain 24hr in | rain mn in | humidity % | barometer mb |
| 20260509080515 | 53 | 0.0 | 0.0 | 0.00 | 0.00 | 0.00 | 65 | 1014.6 | |
| 20260509075515 | 54 | 0.0 | 0.0 | 0.00 | 0.00 | 0.00 | 63 | 1014.8 | |
| 20260509074515 | 54 | 0.0 | 0.0 | 0.00 | 0.00 | 0.00 | 62 | 1014.6 | |
| 20260509073516 | 54 | 0.0 | 0.0 | 0.00 | 0.00 | 0.00 | 63 | 1014.6 | |
| 20260509072516 | 54 | 0.0 | 0.0 | 0.00 | 0.00 | 0.00 | 63 | 1014.9 | |
| 20260509071516 | 53 | 0.0 | 0.0 | 0.00 | 0.00 | 0.00 | 64 | 1014.8 | |
| 20260509070516 | 53 | 0.0 | 0.0 | 0.00 | 0.00 | 0.00 | 65 | 1014.8 | |
| 20260509065515 | 53 | 0.0 | 0.0 | 0.00 | 0.00 | 0.00 | 65 | 1014.9 | |
| 20260509064515 | 54 | 0.0 | 0.0 | 0.00 | 0.00 | 0.00 | 63 | 1014.9 | |
| 20260509063516 | 55 | 0.0 | 0.0 | 0.00 | 0.00 | 0.00 | 61 | 1015.2 | |
| 20260509062515 | 56 | 0.0 | 0.0 | 0.00 | 0.00 | 0.00 | 59 | 1015.1 | |
| 20260509061537 | 56 | 0.0 | 0.0 | 0.00 | 0.00 | 0.00 | 57 | 1015.0 | |
| 20260509060516 | 57 | 0.0 | 0.0 | 0.00 | 0.00 | 0.00 | 56 | 1015.2 | |
| 20260509055515 | 57 | 0.0 | 0.0 | 0.00 | 0.00 | 0.00 | 56 | 1015.0 | |
| 20260509054516 | 57 | 0.0 | 0.0 | 0.00 | 0.00 | 0.00 | 56 | 1015.0 | |
| 20260509053536 | 56 | 0.0 | 0.0 | 0.00 | 0.00 | 0.00 | 58 | 1014.9 | |
| 20260509052516 | 56 | 0.0 | 0.0 | 0.00 | 0.00 | 0.00 | 58 | 1014.8 | |
| 20260509051516 | 56 | 0.0 | 0.0 | 0.00 | 0.00 | 0.00 | 59 | 1014.6 | |
| 20260509050516 | 57 | 0.0 | 0.0 | 0.00 | 0.00 | 0.00 | 58 | 1014.7 | |
| 20260509045515 | 58 | 0.0 | 0.0 | 0.00 | 0.00 | 0.00 | 55 | 1014.6 | |
| 20260509044516 | 58 | 0.0 | 0.0 | 0.00 | 0.00 | 0.00 | 55 | 1014.4 | |
| 20260509043515 | 58 | 0.0 | 0.0 | 0.00 | 0.00 | 0.00 | 56 | 1014.3 | |
| 20260509042516 | 60 | 0.0 | 0.0 | 0.00 | 0.00 | 0.00 | 53 | 1014.3 | |
| 20260509041516 | 61 | 0.0 | 0.0 | 0.00 | 0.00 | 0.00 | 50 | 1014.3 | |
| 20260509040516 | 60 | 0.0 | 0.0 | 0.00 | 0.00 | 0.00 | 52 | 1014.1 | |
| 20260509035515 | 60 | 0.0 | 0.0 | 0.00 | 0.00 | 0.00 | 52 | 1013.9 | |
| 20260509034515 | 61 | 0.0 | 0.0 | 0.00 | 0.00 | 0.00 | 50 | 1013.9 | |
| 20260509033515 | 63 | 0.0 | 0.0 | 0.00 | 0.00 | 0.00 | 46 | 1014.0 | |
| 20260509032515 | 65 | 0.0 | 0.0 | 0.00 | 0.00 | 0.00 | 43 | 1013.9 | |
| 20260509031516 | 65 | 0.0 | 0.0 | 0.00 | 0.00 | 0.00 | 42 | 1013.7 | |
| 20260509030515 | 64 | 0.0 | 0.0 | 0.00 | 0.00 | 0.00 | 43 | 1013.7 | |
| 20260509025515 | 65 | 0.0 | 0.0 | 0.00 | 0.00 | 0.00 | 43 | 1013.7 | |
| 20260509024537 | 64 | 0.0 | 0.0 | 0.00 | 0.00 | 0.00 | 44 | 1013.3 | |
| 20260509023515 | 65 | 0.0 | 0.0 | 0.00 | 0.00 | 0.00 | 43 | 1013.5 | |
| 20260509022515 | 65 | 0.0 | 0.0 | 0.00 | 0.00 | 0.00 | 43 | 1013.4 | |
| 20260509021516 | 66 | 0.0 | 0.0 | 0.00 | 0.00 | 0.00 | 41 | 1013.4 | |
| 20260509020515 | 67 | 0.0 | 0.0 | 0.00 | 0.00 | 0.00 | 40 | 1013.4 | |
| 20260509015515 | 68 | 0.0 | 0.0 | 0.00 | 0.00 | 0.00 | 39 | 1013.2 | |
| 20260509014515 | 68 | 0.0 | 0.0 | 0.00 | 0.00 | 0.00 | 39 | 1013.0 | |
| 20260509013536 | 68 | 0.0 | 0.0 | 0.00 | 0.00 | 0.00 | 39 | 1012.8 | |
| 20260509012556 | 69 | 0.0 | 0.0 | 0.00 | 0.00 | 0.00 | 38 | 1012.8 | |
| 20260509011516 | 70 | 0.0 | 0.0 | 0.00 | 0.00 | 0.00 | 36 | 1012.7 | |
| 20260509010516 | 71 | 0.0 | 0.0 | 0.00 | 0.00 | 0.00 | 35 | 1012.8 | |
| 20260509005516 | 72 | 0.0 | 0.0 | 0.00 | 0.00 | 0.00 | 33 | 1012.8 | |
| 20260509004515 | 73 | 0.0 | 0.0 | 0.00 | 0.00 | 0.00 | 32 | 1012.8 | |
| 20260509003515 | 73 | 0.0 | 0.0 | 0.00 | 0.00 | 0.00 | 32 | 1012.8 | |
| 20260509002516 | 73 | 0.0 | 0.0 | 0.00 | 0.00 | 0.00 | 31 | 1012.8 | |
| 20260509001515 | 74 | 0.0 | 0.0 | 0.00 | 0.00 | 0.00 | 31 | 1012.9 | |
| 20260509000517 | 74 | 0.0 | 0.0 | 0.00 | 0.00 | 0.00 | 30 | 1013.0 | |
| 20260508235515 | 74 | 0.0 | 0.0 | 0.00 | 0.00 | 0.00 | 30 | 1012.9 | |
| 20260508234536 | 74 | 0.0 | 0.0 | 0.00 | 0.00 | 0.00 | 30 | 1012.9 | |
| 20260508233516 | 75 | 0.0 | 0.0 | 0.00 | 0.00 | 0.00 | 30 | 1012.7 | |
| 20260508232515 | 75 | 0.0 | 0.0 | 0.00 | 0.00 | 0.00 | 29 | 1012.8 | |
| 20260508231515 | 76 | 0.0 | 0.0 | 0.00 | 0.00 | 0.00 | 29 | 1012.7 | |
| 20260508230515 | 76 | 0.0 | 0.0 | 0.00 | 0.00 | 0.00 | 29 | 1012.6 | |
| 20260508225516 | 76 | 0.0 | 0.0 | 0.00 | 0.00 | 0.00 | 28 | 1012.5 | |
| 20260508224536 | 76 | 0.0 | 0.0 | 0.00 | 0.00 | 0.00 | 30 | 1012.4 | |
| 20260508223515 | 76 | 0.0 | 0.0 | 0.00 | 0.00 | 0.00 | 31 | 1012.3 | |
| 20260508222516 | 76 | 0.0 | 0.0 | 0.00 | 0.00 | 0.00 | 31 | 1012.1 | |
| 20260508221515 | 76 | 0.0 | 0.0 | 0.00 | 0.00 | 0.00 | 30 | 1012.3 | |
| 20260508220517 | 77 | 0.0 | 0.0 | 0.00 | 0.00 | 0.00 | 30 | 1012.3 | |
| 20260508215515 | 76 | 0.0 | 0.0 | 0.00 | 0.00 | 0.00 | 31 | 1012.3 | |
| 20260508214515 | 76 | 0.0 | 0.0 | 0.00 | 0.00 | 0.00 | 30 | 1012.5 | |
| 20260508213556 | 77 | 0.0 | 0.0 | 0.00 | 0.00 | 0.00 | 30 | 1012.5 | |
| 20260508212537 | 77 | 0.0 | 0.0 | 0.00 | 0.00 | 0.00 | 31 | 1012.6 | |
| 20260508211516 | 77 | 0.0 | 0.0 | 0.00 | 0.00 | 0.00 | 31 | 1012.6 | |
| 20260508210536 | 78 | 0.0 | 0.0 | 0.00 | 0.00 | 0.00 | 30 | 1012.7 | |
| 20260508205515 | 77 | 0.0 | 0.0 | 0.00 | 0.00 | 0.00 | 30 | 1012.7 | |
| 20260508204516 | 77 | 0.0 | 0.0 | 0.00 | 0.00 | 0.00 | 30 | 1012.7 | |
| 20260508203515 | 77 | 0.0 | 0.0 | 0.00 | 0.00 | 0.00 | 30 | 1012.7 | |
| 20260508202516 | 77 | 0.0 | 0.0 | 0.00 | 0.00 | 0.00 | 31 | 1012.7 | |
| 20260508201536 | 78 | 0.0 | 0.0 | 0.00 | 0.00 | 0.00 | 30 | 1012.8 | |
| 20260508200516 | 78 | 0.0 | 0.0 | 0.00 | 0.00 | 0.00 | 31 | 1012.9 | |
| 20260508195515 | 77 | 0.0 | 0.0 | 0.00 | 0.00 | 0.00 | 32 | 1012.9 | |
| 20260508194516 | 77 | 0.0 | 0.0 | 0.00 | 0.00 | 0.00 | 31 | 1013.0 | |
| 20260508193516 | 77 | 0.0 | 0.0 | 0.00 | 0.00 | 0.00 | 31 | 1013.1 | |
| 20260508192515 | 77 | 0.0 | 0.0 | 0.00 | 0.00 | 0.00 | 32 | 1013.0 | |
| 20260508191515 | 77 | 0.0 | 0.0 | 0.00 | 0.00 | 0.00 | 33 | 1012.9 | |
| 20260508190517 | 76 | 0.0 | 0.0 | 0.00 | 0.00 | 0.00 | 34 | 1013.1 | |
| 20260508185516 | 75 | 0.0 | 0.0 | 0.00 | 0.00 | 0.00 | 35 | 1013.0 | |
| 20260508184515 | 75 | 0.0 | 0.0 | 0.00 | 0.00 | 0.00 | 35 | 1013.2 | |
| 20260508183516 | 75 | 0.0 | 0.0 | 0.00 | 0.00 | 0.00 | 34 | 1013.1 | |
| 20260508182516 | 75 | 0.0 | 0.0 | 0.00 | 0.00 | 0.00 | 34 | 1013.2 | |
| 20260508181516 | 75 | 0.0 | 0.0 | 0.00 | 0.00 | 0.00 | 36 | 1013.3 | |
| 20260508180516 | 73 | 0.0 | 0.0 | 0.00 | 0.00 | 0.00 | 38 | 1013.2 | |
| 20260508175515 | 73 | 0.0 | 0.0 | 0.00 | 0.00 | 0.00 | 38 | 1013.2 | |
| 20260508174515 | 73 | 0.0 | 0.0 | 0.00 | 0.00 | 0.00 | 37 | 1013.3 | |
| 20260508173516 | 73 | 0.0 | 0.0 | 0.00 | 0.00 | 0.00 | 38 | 1013.2 | |
| 20260508172516 | 74 | 0.0 | 0.0 | 0.00 | 0.00 | 0.00 | 39 | 1013.4 | |
| 20260508171515 | 72 | 0.0 | 0.0 | 0.00 | 0.00 | 0.00 | 40 | 1013.3 | |
| 20260508170516 | 72 | 0.0 | 0.0 | 0.00 | 0.00 | 0.00 | 42 | 1013.6 | |
| 20260508165515 | 71 | 0.0 | 0.0 | 0.00 | 0.00 | 0.00 | 42 | 1013.7 | |
| 20260508164516 | 71 | 0.0 | 0.0 | 0.00 | 0.00 | 0.00 | 42 | 1013.9 | |
| 20260508163516 | 70 | 0.0 | 0.0 | 0.00 | 0.00 | 0.00 | 46 | 1013.9 | |
| 20260508162516 | 69 | 0.0 | 0.0 | 0.00 | 0.00 | 0.00 | 46 | 1014.1 | |
| 20260508161516 | 68 | 0.0 | 0.0 | 0.00 | 0.00 | 0.00 | 48 | 1014.0 | |
| 20260508160516 | 68 | 0.0 | 0.0 | 0.00 | 0.00 | 0.00 | 48 | 1014.0 | |
| 20260508155515 | 67 | 0.0 | 0.0 | 0.00 | 0.00 | 0.00 | 49 | 1013.9 | |
| 20260508154515 | 67 | 0.0 | 0.0 | 0.00 | 0.00 | 0.00 | 49 | 1013.8 | |
| 20260508153516 | 66 | 0.0 | 0.0 | 0.00 | 0.00 | 0.00 | 49 | 1013.6 | |
| 20260508152516 | 65 | 0.0 | 0.0 | 0.00 | 0.00 | 0.00 | 51 | 1013.6 | |
| 20260508151516 | 64 | 0.0 | 0.0 | 0.00 | 0.00 | 0.00 | 55 | 1013.6 | |
| 20260508150515 | 63 | 0.0 | 0.0 | 0.00 | 0.00 | 0.00 | 56 | 1013.4 | |
| 20260508145536 | 63 | 0.0 | 0.0 | 0.00 | 0.00 | 0.00 | 57 | 1013.4 | |
| 20260508144515 | 62 | 0.0 | 0.0 | 0.00 | 0.00 | 0.00 | 59 | 1013.3 | |
| 20260508143515 | 62 | 0.0 | 0.0 | 0.00 | 0.00 | 0.00 | 61 | 1013.2 | |
| 20260508142515 | 61 | 0.0 | 0.0 | 0.00 | 0.00 | 0.00 | 62 | 1013.3 | |
| 20260508141515 | 60 | 0.0 | 0.0 | 0.00 | 0.00 | 0.00 | 65 | 1013.3 | |
| 20260508140516 | 59 | 0.0 | 0.0 | 0.00 | 0.00 | 0.00 | 66 | 1013.2 | |
| 20260508135517 | 58 | 0.0 | 0.0 | 0.00 | 0.00 | 0.00 | 68 | 1013.1 | |
| 20260508134515 | 57 | 0.0 | 0.0 | 0.00 | 0.00 | 0.00 | 70 | 1013.0 | |
| 20260508133515 | 57 | 0.0 | 0.0 | 0.00 | 0.00 | 0.00 | 72 | 1013.0 | |
| 20260508132515 | 55 | 0.0 | 0.0 | 0.00 | 0.00 | 0.00 | 75 | 1013.0 | |
| 20260508131516 | 54 | 0.0 | 0.0 | 0.00 | 0.00 | 0.00 | 76 | 1012.9 | |
| 20260508130515 | 53 | 0.0 | 0.0 | 0.00 | 0.00 | 0.00 | 78 | 1012.8 | |
| 20260508125516 | 53 | 0.0 | 0.0 | 0.00 | 0.00 | 0.00 | 79 | 1012.8 | |
| 20260508124536 | 52 | 0.0 | 0.0 | 0.00 | 0.00 | 0.00 | 79 | 1012.9 | |
| 20260508123516 | 52 | 0.0 | 0.0 | 0.00 | 0.00 | 0.00 | 79 | 1012.7 | |
| 20260508122515 | 52 | 0.0 | 0.0 | 0.00 | 0.00 | 0.00 | 79 | 1012.7 | |
| 20260508121516 | 52 | 0.0 | 0.0 | 0.00 | 0.00 | 0.00 | 79 | 1012.9 | |
| 20260508120516 | 52 | 0.0 | 0.0 | 0.00 | 0.00 | 0.00 | 79 | 1013.2 | |
| 20260508115516 | 52 | 0.0 | 0.0 | 0.00 | 0.00 | 0.00 | 79 | 1013.3 | |
| 20260508114535 | 52 | 0.0 | 0.0 | 0.00 | 0.00 | 0.00 | 79 | 1013.3 | |
| 20260508113515 | 52 | 0.0 | 0.0 | 0.00 | 0.00 | 0.00 | 80 | 1013.3 | |
| 20260508112515 | 52 | 0.0 | 0.0 | 0.00 | 0.00 | 0.00 | 79 | 1013.6 | |
| 20260508111516 | 52 | 0.0 | 0.0 | 0.00 | 0.00 | 0.00 | 79 | 1013.3 | |
| 20260508110516 | 53 | 0.0 | 0.0 | 0.00 | 0.00 | 0.00 | 77 | 1013.1 | |
| 20260508105515 | 53 | 0.0 | 0.0 | 0.00 | 0.00 | 0.00 | 78 | 1012.6 | |
| 20260508104516 | 53 | 0.0 | 0.0 | 0.00 | 0.00 | 0.00 | 77 | 1012.6 | |
| 20260508103515 | 53 | 0.0 | 0.0 | 0.00 | 0.00 | 0.00 | 77 | 1012.6 | |
| 20260508102516 | 52 | 0.0 | 0.0 | 0.00 | 0.00 | 0.00 | 78 | 1012.6 | |
| 20260508101516 | 52 | 0.0 | 0.0 | 0.00 | 0.00 | 0.00 | 76 | 1012.4 | |
| 20260508100536 | 53 | 0.0 | 0.0 | 0.00 | 0.00 | 0.00 | 74 | 1012.6 | |
| 20260508095517 | 53 | 0.0 | 0.0 | 0.00 | 0.00 | 0.00 | 73 | 1012.6 | |
| 20260508094515 | 54 | 0.0 | 0.0 | 0.00 | 0.00 | 0.00 | 71 | 1012.6 | |
| 20260508093516 | 54 | 0.0 | 0.0 | 0.00 | 0.00 | 0.00 | 69 | 1012.6 | |
| 20260508092517 | 54 | 0.0 | 0.0 | 0.00 | 0.00 | 0.00 | 69 | 1012.7 | |
| 20260508091516 | 54 | 0.0 | 0.0 | 0.00 | 0.00 | 0.00 | 69 | 1012.6 | |
| 20260508090516 | 55 | 0.0 | 0.0 | 0.00 | 0.00 | 0.00 | 67 | 1012.8 | |
| 20260508085515 | 55 | 0.0 | 0.0 | 0.00 | 0.00 | 0.00 | 66 | 1012.9 | |
| 20260508084516 | 55 | 0.0 | 0.0 | 0.00 | 0.00 | 0.00 | 65 | 1012.8 | |
| 20260508083515 | 55 | 0.0 | 0.0 | 0.00 | 0.00 | 0.00 | 64 | 1012.9 | |
| 20260508082556 | 55 | 0.0 | 0.0 | 0.00 | 0.00 | 0.00 | 63 | 1012.9 | |
| 20260508081516 | 55 | 0.0 | 0.0 | 0.00 | 0.00 | 0.00 | 62 | 1012.9 |